STARLINK-34821

Last updated on Sat Sep 13 2025 00:02:06 GMT+0000 (Coordinated Universal Time)

1 65199U 25176B 25255.54227439 .00359096 00000+0 63200-2 0 9990 2 65199 53.1614 263.8733 0002478 26.5919 333.5216 15.48634134 5734
UTC large
Height (km)
Speed (km/s)
/
Latitude / Longitude
Inclination (degrees)
Orbital Period (minutes)
Azimuth
Elevation
Range (km)
Doppler Factor

Next 0 passes for location: London (51.5072 / 0.1276)

Sorry there are no passes over London.